EW5925 Weather Reports


time (UTC)temp
C
wind
direction
speed
KPH
gust
KPH
rain 1hr
cm
rain 24hr
cm
rain mn
cm
humidity
%
barometer
mb
20260903050317 26 49 4.8 14.5 0.00 0.00 0.00 59 1016.3
20260903045804 27 330 4.8 14.5 0.00 0.00 0.00 58 1016.5
20260903045306 27 14 4.8 11.3 0.00 0.00 0.00 58 1016.6
20260903044802 27 50 4.8 11.3 0.00 0.00 0.00 57 1016.7
20260903044303 27 50 3.2 11.3 0.00 0.00 0.00 58 1016.7
20260903043801 27 49 4.8 12.9 0.00 0.00 0.00 58 1016.8
20260903043303 27 65 4.8 16.1 0.00 0.00 0.00 57 1016.9
20260903042749 27 342 4.8 16.1 0.00 0.00 0.00 56 1016.9
20260903042249 27 16 4.8 11.3 0.00 0.00 0.00 56 1016.9
20260903041747 27 4 4.8 11.3 0.00 0.00 0.00 57 1016.9
20260903041245 27 52 4.8 16.1 0.00 0.00 0.00 57 1017.0
20260903040744 27 22 6.4 16.1 0.00 0.00 0.00 57 1017.1
20260903040243 27 358 6.4 14.5 0.00 0.00 0.00 57 1017.1
20260903040008 27 37 6.4 14.5 0.00 0.00 0.00 56 1017.1
20260903035504 27 73 4.8 12.9 0.00 0.00 0.00 57 1017.1
20260903034734 27 0 4.8 16.1 0.00 0.00 0.00 56 1017.2
20260903034233 27 316 6.4 16.1 0.00 0.00 0.00 56 1017.3
20260903033730 27 35 4.8 12.9 0.00 0.00 0.00 56 1017.4
20260903033232 27 2 4.8 16.1 0.00 0.00 0.00 57 1017.5
20260903032712 27 22 6.4 19.3 0.00 0.00 0.00 57 1017.6
20260903032213 27 18 6.4 19.3 0.00 0.00 0.00 57 1017.6
20260903031705 27 352 4.8 16.1 0.00 0.00 0.00 57 1017.7
20260903031202 27 48 4.8 16.1 0.00 0.00 0.00 56 1017.7
20260903030701 27 76 4.8 16.1 0.00 0.00 0.00 55 1017.9
20260903030159 27 29 6.4 16.1 0.00 0.00 0.00 54 1017.9
20260903025656 26 24 6.4 12.9 0.00 0.00 0.00 54 1018.0
20260903025156 26 299 4.8 17.7 0.00 0.00 0.00 55 1018.1
20260903024652 26 89 4.8 17.7 0.00 0.00 0.00 56 1018.1
20260903024152 26 64 6.4 17.7 0.00 0.00 0.00 56 1018.2
20260903023644 26 348 6.4 17.7 0.00 0.00 0.00 55 1018.3
20260903023142 26 342 6.4 16.1 0.00 0.00 0.00 54 1018.4
20260903022640 26 28 6.4 16.1 0.00 0.00 0.00 53 1018.7
20260903022411 27 47 6.4 16.1 0.00 0.00 0.00 52 1018.8
20260903021849 27 77 4.8 14.5 0.00 0.00 0.00 53 1018.8
20260903021342 27 341 4.8 14.5 0.00 0.00 0.00 52 1018.8
20260903020606 27 9 4.8 11.3 0.00 0.00 0.00 50 1019.0
20260903020108 27 39 4.8 11.3 0.00 0.00 0.00 50 1019.1
20260903015558 26 1 6.4 11.3 0.00 0.00 0.00 49 1019.1
20260903015057 26 1 4.8 11.3 0.00 0.00 0.00 49 1019.3
20260903014554 26 60 3.2 11.3 0.00 0.00 0.00 50 1019.3
20260903014312 26 49 3.2 11.3 0.00 0.00 0.00 51 1019.5
20260903013551 26 66 4.8 11.3 0.00 0.00 0.00 51 1019.5
20260903013310 26 53 4.8 17.7 0.00 0.00 0.00 51 1019.6
20260903012550 26 8 4.8 17.7 0.00 0.00 0.00 50 1019.7
20260903012047 26 327 4.8 12.9 0.00 0.00 0.00 51 1019.9
20260903011542 26 64 4.8 12.9 0.00 0.00 0.00 52 1020.0
20260903011040 26 16 4.8 12.9 0.00 0.00 0.00 52 1020.0
20260903010540 26 9 3.2 9.7 0.00 0.00 0.00 52 1020.1
20260903010055 26 358 3.2 11.3 0.00 0.00 0.00 53 1020.2
20260903005516 26 7 3.2 11.3 0.00 0.00 0.00 52 1020.3
20260903004949 26 348 4.8 12.9 0.00 0.00 0.00 54 1020.4
20260903004422 26 47 4.8 12.9 0.00 0.00 0.00 54 1020.5
20260903003903 26 277 3.2 11.3 0.00 0.00 0.00 54 1020.6
20260903003629 26 359 3.2 9.7 0.00 0.00 0.00 54 1020.7
20260903002839 26 18 4.8 11.3 0.00 0.00 0.00 55 1020.7
20260903002536 25 325 4.8 11.3 0.00 0.00 0.00 54 1020.8
20260903001741 25 333 3.2 11.3 0.00 0.00 0.00 54 1020.8
20260903001228 25 322 1.6 8.0 0.00 0.00 0.00 54 1020.9
20260903000650 25 318 3.2 9.7 0.00 0.00 0.00 56 1021.1
20260903000125 24 320 4.8 9.7 0.00 0.00 0.00 57 1021.2
20260902235821 23 356 4.8 12.9 0.00 0.00 0.00 57 1021.3
20260902235034 23 342 3.2 12.9 0.00 0.00 0.00 58 1021.2
20260902234506 23 310 3.2 9.7 0.00 0.00 0.00 60 1021.2
20260902233943 23 337 1.6 8.0 0.00 0.00 0.00 61 1021.2
20260902233414 22 359 1.6 11.3 0.00 0.00 0.00 63 1021.1
20260902233112 22 359 3.2 11.3 0.00 0.00 0.00 64 1021.1
20260902232553 22 323 3.2 8.0 0.00 0.00 0.00 67 1021.2
20260902232050 21 324 3.2 8.0 0.00 0.00 0.00 66 1021.2
20260902231305 21 322 3.2 6.4 0.00 0.00 0.00 69 1021.2
20260902230751 20 318 4.8 11.3 0.00 0.00 0.00 71 1021.3
20260902230209 20 322 4.8 11.3 0.00 0.00 0.00 72 1021.3
20260902225657 20 3 4.8 9.7 0.00 0.00 0.00 75 1021.4
20260902225131 19 337 3.2 9.7 0.00 0.00 0.00 77 1021.4
20260902224553 18 310 3.2 9.7 0.00 0.00 0.00 81 1021.4
20260902224036 18 336 3.2 9.7 0.00 0.00 0.00 83 1021.5
20260902223536 18 6 1.6 8.0 0.00 0.00 0.00 85 1021.5
20260902223257 17 315 1.6 8.0 0.00 0.00 0.00 87 1021.5
20260902222534 17 219 1.6 8.0 0.00 0.00 0.00 89 1021.5
20260902222250 16 258 0.0 4.8 0.00 0.00 0.00 91 1021.5
20260902221532 16 258 1.6 4.8 0.00 0.00 0.00 93 1021.4
20260902221033 15 251 1.6 4.8 0.00 0.00 0.00 93 1021.3
20260902220533 15 251 0.0 4.8 0.00 0.00 0.00 94 1021.3
20260902220030 15 245 0.0 6.4 0.00 0.00 0.00 94 1021.2
20260902215530 14 245 0.0 6.4 0.00 0.00 0.00 94 1021.1
20260902215030 14 245 1.6 6.4 0.00 0.00 0.00 94 1021.1
20260902214525 14 245 0.0 6.4 0.00 0.00 0.00 94 1021.1
20260902214022 13 342 0.0 3.2 0.00 0.00 0.00 94 1021.3
20260902213532 13 342 0.0 3.2 0.00 0.00 0.00 94 1021.3
20260902213021 13 342 0.0 3.2 0.00 0.00 0.00 94 1021.3
20260902212507 13 342 0.0 1.6 0.00 0.00 0.00 93 1021.3
20260902212020 12 342 0.0 3.2 0.00 0.00 0.00 93 1021.3
20260902211733 12 342 0.0 3.2 0.00 0.00 0.00 93 1021.3
20260902211228 12 342 0.0 0.0 0.00 0.00 0.00 93 1021.3
20260902210503 12 342 0.0 0.0 0.00 0.00 0.00 92 1021.2
20260902210000 11 342 0.0 0.0 0.00 0.00 0.00 92 1021.1
20260902205459 11 342 0.0 0.0 0.00 0.00 0.00 92 1021.1
20260902205001 11 342 0.0 0.0 0.00 0.00 0.00 92 1021.0
20260902204458 11 342 0.0 0.0 0.00 0.00 0.00 91 1020.9
20260902203957 11 342 0.0 0.0 0.00 0.00 0.00 91 1020.8
20260902203500 11 342 0.0 0.0 0.00 0.00 0.00 91 1020.7
20260902202952 11 342 0.0 0.0 0.00 0.00 0.00 91 1020.6
20260902202450 11 342 0.0 0.0 0.00 0.00 0.00 91 1020.6
20260902202205 11 342 0.0 0.0 0.00 0.00 0.00 91 1020.6
20260902201449 11 342 0.0 0.0 0.00 0.00 0.00 91 1020.5
20260902201149 11 342 0.0 0.0 0.00 0.00 0.00 91 1020.5
20260902200429 11 342 0.0 0.0 0.00 0.00 0.00 90 1020.5
20260902195902 11 342 0.0 1.6 0.00 0.00 0.00 90 1020.4
20260902195623 11 342 0.0 1.6 0.00 0.00 0.00 90 1020.4
20260902194902 11 342 0.0 1.6 0.00 0.00 0.00 90 1020.4
20260902194359 11 342 0.0 1.6 0.00 0.00 0.00 90 1020.3
20260902193859 11 342 0.0 1.6 0.00 0.00 0.00 90 1020.2
20260902193623 11 342 0.0 1.6 0.00 0.00 0.00 90 1020.2
20260902192858 11 342 0.0 1.6 0.00 0.00 0.00 90 1020.1
20260902192356 11 342 0.0 0.0 0.00 0.00 0.00 90 1020.1
20260902192113 11 342 0.0 0.0 0.00 0.00 0.00 90 1020.0
20260902191353 11 342 0.0 0.0 0.00 0.00 0.00 90 1020.0
20260902190845 11 342 0.0 0.0 0.00 0.00 0.00 90 1020.0
20260902190343 11 342 0.0 1.6 0.00 0.00 0.00 90 1020.0
20260902185842 11 342 0.0 1.6 0.00 0.00 0.00 90 1019.9
20260902185344 12 342 0.0 1.6 0.00 0.00 0.00 89 1019.8
20260902184817 12 342 0.0 3.2 0.00 0.00 0.00 89 1019.8
20260902184133 12 342 0.0 1.6 0.00 0.00 0.00 89 1019.8
20260902183626 12 342 0.0 1.6 0.00 0.00 0.00 89 1019.6
20260902183125 12 342 0.0 0.0 0.00 0.00 0.00 89 1019.6
20260902182622 12 342 0.0 0.0 0.00 0.00 0.00 89 1019.6
20260902182125 12 342 0.0 0.0 0.00 0.00 0.00 89 1019.7
20260902181614 12 342 0.0 0.0 0.00 0.00 0.00 89 1019.7
20260902181336 12 342 0.0 0.0 0.00 0.00 0.00 89 1019.7
20260902180611 12 342 0.0 0.0 0.00 0.00 0.00 88 1019.6
20260902180118 12 342 0.0 0.0 0.00 0.00 0.00 88 1019.5
20260902175608 12 342 0.0 0.0 0.00 0.00 0.00 88 1019.5
20260902175109 12 342 0.0 0.0 0.00 0.00 0.00 88 1019.6
20260902174604 12 342 0.0 0.0 0.00 0.00 0.00 88 1019.6
20260902174104 12 342 0.0 0.0 0.00 0.00 0.00 88 1019.6
20260902173555 13 342 0.0 0.0 0.00 0.00 0.00 88 1019.5
20260902173056 13 342 0.0 0.0 0.00 0.00 0.00 88 1019.5
20260902173033 13 342 0.0 0.0 0.00 0.00 0.00 88 1019.5
20260902172055 13 342 0.0 0.0 0.00 0.00 0.00 88 1019.5
20260902171529 13 342 0.0 1.6 0.00 0.00 0.00 88 1019.5
20260902171028 13 342 0.0 1.6 0.00 0.00 0.00 88 1019.4
20260902170525 13 342 0.0 0.0 0.00 0.00 0.00 88 1019.4
20260902170025 13 342 0.0 0.0 0.00 0.00 0.00 87 1019.5
20260902165522 13 342 0.0 0.0 0.00 0.00 0.00 87 1019.5
20260902165020 13 342 0.0 1.6 0.00 0.00 0.00 87 1019.5
20260902164737 13 342 0.0 1.6 0.00 0.00 0.00 87 1019.6
20260902164012 13 342 0.0 1.6 0.00 0.00 0.00 86 1019.7
20260902163512 14 342 0.0 1.6 0.00 0.00 0.00 86 1019.6
20260902163007 14 342 0.0 0.0 0.00 0.00 0.00 86 1019.7
20260902162506 14 342 0.0 0.0 0.00 0.00 0.00 86 1019.7
20260902162005 14 342 0.0 0.0 0.00 0.00 0.00 86 1019.8
20260902161502 14 342 0.0 0.0 0.00 0.00 0.00 85 1019.8
20260902161004 15 342 0.0 0.0 0.00 0.00 0.00 85 1019.8
20260902160447 15 342 0.0 1.6 0.00 0.00 0.00 84 1019.9
20260902160427 15 342 0.0 1.6 0.00 0.00 0.00 84 1019.8
20260902155657 15 342 0.0 0.0 0.00 0.00 0.00 84 1019.8
20260902154937 15 342 0.0 1.6 0.00 0.00 0.00 84 1019.9
20260902154435 15 342 0.0 1.6 0.00 0.00 0.00 84 1019.9
20260902153934 15 342 0.0 0.0 0.00 0.00 0.00 83 1019.9
20260902153432 15 342 0.0 0.0 0.00 0.00 0.00 83 1020.1
20260902152930 16 342 0.0 0.0 0.00 0.00 0.00 83 1020.2
20260902152427 16 342 0.0 0.0 0.00 0.00 0.00 83 1020.3
20260902152144 16 342 0.0 0.0 0.00 0.00 0.00 83 1020.3
20260902151425 16 342 0.0 1.6 0.00 0.00 0.00 82 1020.3
20260902150921 16 342 0.0 1.6 0.00 0.00 0.00 82 1020.3
20260902150420 16 342 0.0 0.0 0.00 0.00 0.00 82 1020.3
20260902150135 16 342 0.0 1.6 0.00 0.00 0.00 82 1020.3
20260902145411 16 342 0.0 1.6 0.00 0.00 0.00 82 1020.3
20260902144909 17 342 0.0 1.6 0.00 0.00 0.00 81 1020.3
20260902144411 17 342 0.0 0.0 0.00 0.00 0.00 81 1020.3
20260902143844 17 342 0.0 0.0 0.00 0.00 0.00 82 1020.3
20260902143331 17 342 0.0 0.0 0.00 0.00 0.00 82 1020.3
20260902142829 17 342 0.0 3.2 0.00 0.00 0.00 82 1020.3
20260902142328 17 342 0.0 3.2 0.00 0.00 0.00 82 1020.4
20260902142055 17 342 1.6 6.4 0.00 0.00 0.00 82 1020.4
20260902141549 17 342 3.2 8.0 0.00 0.00 0.00 82 1020.4
20260902140832 17 342 3.2 8.0 0.00 0.00 0.00 82 1020.4
20260902140317 17 342 3.2 8.0 0.00 0.00 0.00 82 1020.4
20260902140302 17 342 3.2 8.0 0.00 0.00 0.00 82 1020.4
20260902135314 17 351 3.2 6.4 0.00 0.00 0.00 81 1020.4
20260902134814 17 349 1.6 6.4 0.00 0.00 0.00 81 1020.4
20260902134318 18 349 1.6 6.4 0.00 0.00 0.00 81 1020.4
20260902133804 18 343 1.6 6.4 0.00 0.00 0.00 80 1020.5
20260902133302 18 339 1.6 8.0 0.00 0.03 0.00 80 1020.4
20260902132803 18 339 3.2 8.0 0.00 0.03 0.00 80 1020.6
20260902132234 18 338 3.2 8.0 0.00 0.03 0.00 79 1020.6
20260902131711 18 317 3.2 9.7 0.00 0.03 0.00 79 1020.6
20260902131438 18 357 4.8 9.7 0.00 0.03 0.00 79 1020.6
20260902130657 18 10 4.8 11.3 0.00 0.03 0.00 79 1020.6
20260902130208 18 355 3.2 11.3 0.00 0.03 0.00 79 1020.6
20260902125654 18 349 4.8 12.9 0.00 0.03 0.00 79 1020.6
20260902125154 18 3 6.4 12.9 0.00 0.03 0.00 79 1020.6
20260902124654 18 4 4.8 14.5 0.00 0.03 0.00 79 1020.7
20260902124151 18 1 4.8 14.5 0.00 0.03 0.00 80 1020.8
20260902123651 18 6 4.8 16.1 0.00 0.03 0.00 80 1020.8
20260902123152 18 295 6.4 16.1 0.00 0.03 0.00 81 1020.8
20260902122645 18 0 6.4 17.7 0.00 0.03 0.00 81 1020.8
20260902122143 18 342 6.4 17.7 0.00 0.03 0.00 81 1020.8
20260902121641 18 334 6.4 12.9 0.00 0.03 0.00 82 1020.8
20260902121144 18 335 6.4 11.3 0.00 0.03 0.00 82 1020.8
20260902120621 18 337 6.4 19.3 0.00 0.03 0.00 83 1020.7
20260902120108 18 346 6.4 19.3 0.00 0.03 0.00 83 1020.7
20260902115558 18 345 6.4 14.5 0.00 0.03 0.00 83 1020.8
20260902115052 18 309 6.4 14.5 0.00 0.03 0.00 84 1020.8
20260902114550 18 353 6.4 14.5 0.00 0.03 0.00 84 1020.8
20260902114047 18 328 4.8 11.3 0.00 0.03 0.00 83 1020.8
20260902113548 18 358 4.8 14.5 0.00 0.03 0.00 83 1020.8
20260902113046 18 349 4.8 17.7 0.00 0.03 0.00 83 1020.8
20260902112548 18 4 4.8 17.7 0.00 0.03 0.00 83 1020.7
20260902112043 18 10 4.8 11.3 0.00 0.03 0.00 83 1020.7
20260902111544 18 337 3.2 9.7 0.00 0.03 0.00 83 1020.8
20260902111044 18 5 3.2 8.0 0.00 0.03 0.00 83 1020.8
20260902110541 18 357 4.8 9.7 0.00 0.03 0.00 83 1020.9
20260902110054 18 313 4.8 9.7 0.00 0.03 0.00 83 1020.8
20260902105543 18 326 3.2 8.0 0.00 0.03 0.00 83 1020.8
20260902105018 18 15 1.6 6.4 0.00 0.03 0.00 83 1020.7
20260902104452 18 10 3.2 9.7 0.00 0.03 0.00 83 1020.8
20260902104147 18 2 3.2 9.7 0.00 0.03 0.00 83 1020.7
20260902103355 18 324 3.2 8.0 0.00 0.03 0.00 83 1020.6
20260902102827 18 347 3.2 8.0 0.00 0.03 0.00 83 1020.5
20260902102307 18 347 4.8 14.5 0.00 0.03 0.00 83 1020.4
20260902101740 18 10 4.8 14.5 0.00 0.03 0.00 83 1020.5
20260902101214 18 341 3.2 14.5 0.00 0.03 0.00 83 1020.5
20260902100122 18 353 3.2 9.7 0.00 0.03 0.00 82 1020.4
20260902095607 18 342 3.2 9.7 0.00 0.03 0.00 82 1020.4
20260902095025 18 351 4.8 9.7 0.00 0.03 0.00 82 1020.3
20260902094455 19 340 4.8 9.7 0.00 0.03 0.00 82 1020.3
20260902093944 19 354 4.8 9.7 0.00 0.03 0.00 83 1020.2
20260902093440 19 343 4.8 11.3 0.00 0.03 0.00 82 1020.2
20260902092947 19 338 4.8 11.3 0.00 0.03 0.00 82 1020.2
20260902092432 19 2 4.8 8.0 0.00 0.03 0.00 82 1020.2
20260902091925 19 340 4.8 12.9 0.00 0.03 0.00 82 1020.1
20260902091427 19 310 4.8 12.9 0.00 0.03 0.00 82 1020.1
20260902091144 19 341 4.8 14.5 0.00 0.03 0.00 82 1020.0
20260902090416 19 342 4.8 14.5 0.00 0.03 0.00 81 1020.1
20260902085915 19 353 4.8 12.9 0.00 0.03 0.00 81 1020.0
20260902085415 19 355 3.2 12.9 0.00 0.03 0.00 81 1020.0
20260902084914 19 30 3.2 9.7 0.00 0.03 0.00 81 1019.9
20260902084413 19 345 4.8 14.5 0.00 0.03 0.00 80 1019.9
20260902083913 19 23 4.8 14.5 0.00 0.03 0.00 80 1019.9
20260902083415 19 349 4.8 14.5 0.00 0.03 0.00 80 1019.8
20260902082859 20 2 4.8 12.9 0.00 0.03 0.00 80 1019.8
20260902082328 20 344 4.8 12.9 0.00 0.03 0.00 80 1019.8
20260902081830 20 355 4.8 12.9 0.00 0.03 0.00 79 1019.8
20260902081321 20 353 4.8 12.9 0.00 0.03 0.00 79 1019.7
20260902080819 20 339 6.4 12.9 0.00 0.03 0.00 78 1019.7
20260902080313 20 337 6.4 12.9 0.00 0.03 0.00 78 1019.6
20260902075811 20 327 6.4 14.5 0.00 0.03 0.00 77 1019.6
20260902075310 20 0 4.8 14.5 0.00 0.03 0.00 77 1019.5
20260902074807 20 29 4.8 17.7 0.00 0.03 0.00 76 1019.5
20260902074305 20 346 4.8 17.7 0.00 0.03 0.00 76 1019.4
20260902073803 20 353 6.4 17.7 0.00 0.03 0.00 75 1019.4
20260902073301 20 342 4.8 17.7 0.00 0.03 0.00 74 1019.4
20260902072801 21 26 4.8 9.7 0.00 0.03 0.00 73 1019.3
20260902072301 21 357 6.4 20.9 0.00 0.03 0.00 72 1019.2
20260902071759 21 0 8.0 20.9 0.00 0.03 0.00 72 1019.3
20260902071301 21 344 6.4 16.1 0.00 0.03 0.00 71 1019.2
20260902070759 21 10 4.8 16.1 0.00 0.03 0.00 70 1019.2
20260902070259 21 41 4.8 12.9 0.00 0.03 0.00 69 1019.1
20260902070025 21 358 6.4 16.1 0.00 0.03 0.00 69 1019.1
20260902065258 21 6 6.4 16.1 0.00 0.03 0.00 69 1019.1
20260902064759 21 328 3.2 11.3 0.00 0.03 0.00 69 1018.9
20260902064237 21 349 3.2 11.3 0.00 0.03 0.00 69 1019.0
20260902063738 22 43 4.8 14.5 0.00 0.03 0.00 67 1019.0
20260902063210 22 60 4.8 14.5 0.00 0.03 0.00 67 1018.9
20260902062657 22 47 3.2 12.9 0.00 0.03 0.00 66 1018.9
20260902062155 22 79 3.2 12.9 0.00 0.03 0.00 65 1018.9
20260902061655 22 19 4.8 12.9 0.00 0.03 0.00 64 1018.9
20260902061418 22 79 4.8 12.9 0.00 0.03 0.00 62 1018.9
20260902060655 23 46 3.2 11.3 0.00 0.03 0.00 61 1018.8
20260902060155 23 29 3.2 11.3 0.00 0.03 0.00 60 1018.8
20260902055653 23 341 3.2 11.3 0.00 0.03 0.00 60 1018.9
20260902055153 23 38 3.2 12.9 0.00 0.03 0.00 60 1018.9
20260902054654 23 63 4.8 16.1 0.00 0.03 0.00 59 1019.0
20260902054154 23 72 6.4 16.1 0.00 0.03 0.00 58 1019.1
20260902053654 23 13 6.4 16.1 0.00 0.03 0.00 58 1019.1
20260902053153 23 5 6.4 16.1 0.00 0.03 0.00 58 1019.2
20260902052653 23 84 6.4 16.1 0.00 0.03 0.00 57 1019.2
20260902052126 23 355 6.4 20.9 0.00 0.03 0.00 58 1019.2
20260902051626 23 339 6.4 20.9 0.00 0.03 0.00 58 1019.3
20260902051126 23 341 6.4 16.1 0.00 0.03 0.00 59 1019.3
20260902050852 23 66 6.4 16.1 0.00 0.03 0.00 59 1019.3